Juliana Airport, Sint Maarten

10:25 PM AST on April 23, 2017 (GMT -0400)
Princess Juliana International

Weather History for TNCM - February, 2014

Change the Weather History Date:

Friday, February 28, 2014

  Actual Average Record
Temperature  
Mean Temperature 78 °F -  
Max Temperature 82 °F 82 °F 86 °F (2007)
Min Temperature 74 °F 72 °F 71 °F (2001)
Cooling Degree Days 13    
Growing Degree Days 28 (Base 50)    
Moisture  
Dew Point 68 °F    
Average Humidity 69    
Maximum Humidity 78    
Minimum Humidity 53    
Precipitation  
Precipitation 0.00 in 0.06 in - ()
Sea Level Pressure  
Sea Level Pressure 30.02 in    
Wind  
Wind Speed 9 mph ()    
Max Wind Speed 16 mph    
Max Gust Speed -    
Visibility 6.2 miles    
Events      
Averages and records for this station are not official NWS values.
T = Trace of Precipitation, MM = Missing Value Source: Averaged Metar Reports

Daily Weather History Graph

Daily Weather History Graph

Search for Another Location

Airport or City:

Trip Planner

Search our weather history database for the weather conditions in past years. The results will help you decide how hot, cold, wet, or windy it might be!

Date:

Astronomy

Feb. 28, 2014 Rise Set
Actual Time 6:31 AM AST 6:18 PM AST
Civil Twilight 6:09 AM AST 6:40 PM AST
Nautical Twilight 5:44 AM AST 7:05 PM AST
Astronomical Twilight 5:19 AM AST 7:30 PM AST
Moon 5:41 AM AST (2/28) 5:48 PM AST (2/28)
Length of Visible Light 12h 30m
Length of Day
11h 46m
Waning Crescent, 1% of the Moon is Illuminated
Feb 28
Waning Crescent
Mar 1
New
Mar 8
First Quarter
Mar 16
Full
Mar 23
Last Quarter

Hourly Weather History & Observations

Time (AST) Temp. Heat Index Dew Point Humidity Pressure Visibility Wind Dir Wind Speed Gust Speed Precip Events Conditions
12:00 AM 77.0 °F - 68.0 °F 74% 30.04 in 6.2 mi East 10.4 mph - N/A   Partly Cloudy
1:00 AM 77.0 °F - 68.0 °F 74% 30.01 in 6.2 mi East 9.2 mph - N/A   Partly Cloudy
2:00 AM 77 °F - 68 °F 66% 30.02 in 28 mi East 8.1 mph - -   Scattered Clouds
2:00 AM 77.0 °F - 68.0 °F 74% 30.01 in 6.2 mi East 8.1 mph - N/A   Partly Cloudy
3:00 AM 77.0 °F - 68.0 °F 74% 29.98 in 6.2 mi East 10.4 mph - N/A   Partly Cloudy
4:00 AM 77.0 °F - 68.0 °F 74% 29.98 in 6.2 mi East 8.1 mph - N/A   Mostly Cloudy
5:00 AM 77 °F - 67 °F 65% 30.01 in 28 mi East 8.1 mph - -   Partly Cloudy
5:00 AM 77.0 °F - 68.0 °F 74% 30.01 in 6.2 mi East 11.5 mph - N/A   Scattered Clouds
6:00 AM 77.0 °F - 68.0 °F 74% 30.01 in 6.2 mi East 8.1 mph - N/A   Partly Cloudy
7:00 AM 77.0 °F - 68.0 °F 74% 30.04 in 6.2 mi ESE 9.2 mph - N/A   Partly Cloudy
8:00 AM 78 °F - 68 °F 63% 30.05 in 28 mi ESE 8.1 mph - -   Partly Cloudy
8:00 AM 78.8 °F - 68.0 °F 69% 30.04 in 6.2 mi ESE 6.9 mph - N/A   Partly Cloudy
9:00 AM 78.8 °F - 68.0 °F 69% 30.06 in 6.2 mi ESE 9.2 mph - N/A   Partly Cloudy
10:00 AM 78.8 °F - 69.8 °F 74% 30.06 in 6.2 mi SE 12.7 mph - N/A   Scattered Clouds
11:00 AM 81 °F - 67 °F 53% 30.08 in 28 mi SE 11.5 mph - -   Scattered Clouds
11:00 AM 80.6 °F 82.7 °F 66.2 °F 61% 30.06 in 6.2 mi ESE 13.8 mph - N/A   Partly Cloudy
12:00 PM 80.6 °F 83.2 °F 68.0 °F 65% 30.06 in 6.2 mi SE 15.0 mph - N/A   Scattered Clouds
1:00 PM 80.6 °F 83.2 °F 68.0 °F 65% 30.04 in 6.2 mi SE 15.0 mph - N/A   Scattered Clouds
2:00 PM 82 °F - 68 °F 53% 30.02 in 31 mi ESE 12.7 mph - -   Partly Cloudy
2:00 PM 82.4 °F 85.4 °F 68.0 °F 62% 30.01 in 6.2 mi ESE 13.8 mph - N/A   Scattered Clouds
3:00 PM 80.6 °F 83.9 °F 69.8 °F 70% 29.98 in 6.2 mi SE 15.0 mph - N/A   Scattered Clouds
4:00 PM 80.6 °F 82.7 °F 66.2 °F 61% 29.98 in 6.2 mi ESE 16.1 mph - N/A   Partly Cloudy
5:00 PM 80 °F - 69 °F 63% 30.00 in 31 mi East 15.0 mph - -   Partly Cloudy
5:00 PM 78.8 °F - 69.8 °F 74% 29.98 in 6.2 mi East 13.8 mph - N/A   Scattered Clouds
6:00 PM 78.8 °F - 68.0 °F 69% 30.01 in 6.2 mi ESE 12.7 mph - N/A   Partly Cloudy
7:00 PM 78.8 °F - 68.0 °F 69% 30.01 in 6.2 mi East 11.5 mph - N/A   Partly Cloudy
8:00 PM 78 °F - 69 °F 67% 30.03 in 31 mi ESE 8.1 mph - -   Scattered Clouds
8:00 PM 77.0 °F - 69.8 °F 78% 30.01 in 6.2 mi East 8.1 mph - N/A   Partly Cloudy
9:00 PM 78.8 °F - 69.8 °F 74% 30.04 in 6.2 mi East 9.2 mph - N/A   Scattered Clouds
10:00 PM 77.0 °F - 68.0 °F 74% 30.04 in 6.2 mi East 9.2 mph - N/A   Scattered Clouds
11:00 PM 78 °F - 68 °F 65% 30.06 in 28 mi East 10.4 mph - -   Partly Cloudy
11:00 PM 77.0 °F - 68.0 °F 74% 30.04 in 6.2 mi East 10.4 mph - N/A   Partly Cloudy